Weather History for EBLB - March, 2014

Change the Weather History Date:

Monday, March 3, 2014

  Actual Average Record
Temperature  
Mean Temperature 38 °F -  
Max Temperature 43 °F 40 °F 50 °F (1998)
Min Temperature 33 °F 31 °F 23 °F (2009)
Degree Days  
Heating Degree Days 27    
Moisture  
Dew Point 32 °F    
Average Humidity 80    
Maximum Humidity 100    
Minimum Humidity 53    
Precipitation  
Precipitation 0.01 in - - ()
Sea Level Pressure  
Sea Level Pressure 29.25 in    
Wind  
Wind Speed 11 mph ()    
Max Wind Speed 16 mph    
Max Gust Speed 25 mph    
Visibility 8.0 miles    
Events Rain , Snow    
Averages and records for this station are not official NWS values.
T = Trace of Precipitation, MM = Missing Value Source: Averaged Metar Reports

Daily Weather History Graph

Daily Weather History Graph

Search for Another Location

Airport or City:

Trip Planner

Search our weather history database for the weather conditions in past years. The results will help you decide how hot, cold, wet, or windy it might be!

Date:

Astronomy

Mar. 03, 2014 Rise Set
Actual Time 7:15 AM CET 6:19 PM CET
Civil Twilight 6:42 AM CET 6:52 PM CET
Nautical Twilight 6:04 AM CET 7:30 PM CET
Astronomical Twilight 5:26 AM CET 8:08 PM CET
Moon 7:56 AM CET 9:26 PM CET
Length of Visible Light 12h 09m
Length of Day
11h 04m
Waxing Crescent, 6% of the Moon is Illuminated
Mar 3
Waxing Crescent
Mar 8
First Quarter
Mar 16
Full
Mar 24
Last Quarter
Mar 30
New

Hourly Weather History & Observations

Time (CET) Temp. Windchill Dew Point Humidity Pressure Visibility Wind Dir Wind Speed Gust Speed Precip Events Conditions
12:00 AM 35 °F - 30 °F 74% 29.40 in 14 mi South 13.4 mph - -   Mostly Cloudy
12:25 AM 35.6 °F 26.2 °F 30.2 °F 81% 29.30 in 6.2 mi South 15.0 mph - N/A   Mostly Cloudy
1:00 AM 36 °F - 30 °F 71% 29.37 in 14 mi South 13.4 mph - -   Mostly Cloudy
1:25 AM 35.6 °F 26.2 °F 30.2 °F 81% 29.27 in 6.2 mi South 15.0 mph - N/A   Mostly Cloudy
2:00 AM 36 °F - 30 °F 72% 29.33 in 16 mi South 13.4 mph - -   Mostly Cloudy
2:25 AM 35.6 °F 26.6 °F 30.2 °F 81% 29.24 in 6.2 mi South 13.8 mph - N/A   Mostly Cloudy
3:00 AM 36 °F - 29 °F 68% 29.29 in 19 mi South 15.7 mph - -   Mostly Cloudy
3:25 AM 35.6 °F 26.2 °F 30.2 °F 81% 29.21 in 6.2 mi South 15.0 mph - N/A   Mostly Cloudy
4:00 AM 36 °F - 29 °F 69% 29.27 in 19 mi South 11.2 mph - -   Overcast
4:25 AM 35.6 °F 26.6 °F 30.2 °F 81% 29.18 in 6.2 mi South 13.8 mph - N/A   Mostly Cloudy
5:00 AM 36 °F - 30 °F 70% 29.24 in 22 mi South 13.4 mph - -   Scattered Clouds
5:25 AM 35.6 °F 26.6 °F 30.2 °F 81% 29.15 in 6.2 mi South 13.8 mph - N/A   Partly Cloudy
6:00 AM 35 °F - 30 °F 74% 29.23 in 16 mi South 13.4 mph - -   Scattered Clouds
6:25 AM 35.6 °F 27.5 °F 30.2 °F 81% 29.15 in 6.2 mi South 11.5 mph - N/A   Mostly Cloudy
7:00 AM 35 °F - 30 °F 75% 29.21 in 16 mi South 8.9 mph - -   Overcast
7:22 AM 35.6 °F 26.6 °F 30.2 °F 81% 29.12 in 6.2 mi South 13.8 mph - N/A   Mostly Cloudy
7:25 AM 35.6 °F 26.2 °F 30.2 °F 81% 29.12 in 6.2 mi South 15.0 mph - N/A   Mostly Cloudy
7:43 AM 33.8 °F 24.8 °F 30.2 °F 87% 29.15 in 2.8 mi South 12.7 mph - N/A Snow Light Snow
8:00 AM 33 °F - 32 °F 92% 29.23 in 4 mi South 8.9 mph - - Snow Light Snow
8:22 AM 33.8 °F 26.4 °F 32.0 °F 93% 29.15 in 4.3 mi South 9.2 mph - N/A   Mostly Cloudy
8:25 AM 33.8 °F 25.8 °F 32.0 °F 93% 29.15 in 4.3 mi South 10.4 mph - N/A   Mostly Cloudy
9:00 AM 33 °F - 33 °F 98% 29.24 in 2 mi South 11.2 mph - - Snow Light Snow
9:12 AM 33.8 °F 25.8 °F 33.8 °F 100% 29.15 in 1.2 mi South 10.4 mph - N/A   Mostly Cloudy
9:25 AM 33.8 °F 26.4 °F 33.8 °F 100% 29.15 in 1.2 mi South 9.2 mph - N/A   Mostly Cloudy
9:54 AM 35.6 °F 28.0 °F 33.8 °F 93% 29.15 in 5.0 mi South 10.4 mph - N/A   Mostly Cloudy
10:00 AM 35 °F - 35 °F 97% 29.24 in 5 mi SSW 8.9 mph - -   Partly Cloudy
10:23 AM 35.6 °F 28.0 °F 35.6 °F 100% 29.18 in 3.1 mi SSW 10.4 mph - N/A   Light Drizzle
10:25 AM 35.6 °F 28.0 °F 33.8 °F 93% 29.18 in 3.1 mi SSW 10.4 mph - N/A   Light Drizzle
11:00 AM 36 °F - 36 °F 100% 29.25 in 4 mi SSW 8.9 mph - - Rain Light Drizzle
11:25 AM 37.4 °F 30.8 °F 37.4 °F 100% 29.18 in 4.3 mi SSW 9.2 mph - N/A   Mostly Cloudy
12:00 PM 38 °F - 36 °F 90% 29.27 in 4 mi SW 8.9 mph - -   Overcast
12:04 PM 39.2 °F 32.0 °F 37.4 °F 93% 29.21 in 6.2 mi SW 11.5 mph - N/A   Mostly Cloudy
12:25 PM 37.4 °F 29.8 °F 35.6 °F 93% 29.21 in 6.2 mi SW 11.5 mph 24.2 mph N/A Rain Light Drizzle
1:00 PM 38 °F - 35 °F 87% 29.28 in 7 mi WSW 11.2 mph - - Rain Light Rain
1:22 PM 39.2 °F 32.0 °F 32.0 °F 75% 29.21 in 6.2 mi SW 11.5 mph - N/A   Mostly Cloudy
1:25 PM 39.2 °F 31.2 °F 32.0 °F 75% 29.21 in 6.2 mi SW 13.8 mph - N/A   Mostly Cloudy
1:34 PM 41.0 °F 33.5 °F 32.0 °F 70% 29.21 in 6.2 mi WSW 13.8 mph - N/A   Mostly Cloudy
2:00 PM 41 °F - 31 °F 59% 29.28 in 19 mi SW 13.4 mph - -   Mostly Cloudy
2:25 PM 41.0 °F 33.9 °F 32.0 °F 70% 29.24 in 6.2 mi SW 12.7 mph - N/A   Mostly Cloudy
2:43 PM 42.8 °F 36.2 °F 32.0 °F 66% 29.24 in 6.2 mi SW 12.7 mph - N/A   Mostly Cloudy
3:00 PM 43 °F - 31 °F 53% 29.28 in 22 mi SSW 8.9 mph - -   Mostly Cloudy
3:25 PM 41.0 °F 33.9 °F 30.2 °F 65% 29.24 in 6.2 mi SW 12.7 mph 25.3 mph N/A   Mostly Cloudy
4:00 PM 41 °F - 31 °F 56% 29.30 in 25 mi SW 11.2 mph - -   Mostly Cloudy
4:25 PM 41.0 °F 35.8 °F 30.2 °F 65% 29.24 in 6.2 mi SSW 8.1 mph - N/A   Mostly Cloudy
5:00 PM 41 °F - 31 °F 57% 29.31 in 25 mi South 8.9 mph - -   Mostly Cloudy
5:25 PM 41.0 °F 36.4 °F 32.0 °F 70% 29.27 in 6.2 mi SSW 6.9 mph - N/A   Mostly Cloudy
6:00 PM 40 °F - 31 °F 60% 29.33 in 22 mi South 8.9 mph - -   Scattered Clouds
6:25 PM 39.2 °F 35.9 °F 30.2 °F 70% 29.30 in 6.2 mi South 4.6 mph - N/A   Scattered Clouds
7:00 PM 37 °F - 31 °F 73% 29.37 in 22 mi SSE 4.5 mph - -  
7:25 PM 37.4 °F 32.1 °F 32.0 °F 81% 29.30 in 6.2 mi SSE 6.9 mph - N/A   Partly Cloudy
8:00 PM 36 °F - 32 °F 79% 29.39 in 19 mi SSE 6.7 mph - -  
8:25 PM 35.6 °F 29.9 °F 32.0 °F 87% 29.33 in 6.2 mi SSE 6.9 mph - N/A   Unknown
9:00 PM 37 °F - 31 °F 73% 29.40 in 19 mi South 6.7 mph - -   Scattered Clouds
9:25 PM 35.6 °F 28.6 °F 32.0 °F 87% 29.33 in 6.2 mi SSE 9.2 mph - N/A   Scattered Clouds
10:00 PM 36 °F - 31 °F 77% 29.41 in 19 mi South 11.2 mph - -  
10:25 PM 35.6 °F 28.0 °F 32.0 °F 87% 29.36 in 6.2 mi South 10.4 mph - N/A   Unknown
11:00 PM 35 °F - 31 °F 78% 29.43 in 17 mi SSE 4.5 mph - -  
11:25 PM 35.6 °F 30.7 °F 30.2 °F 81% 29.36 in 6.2 mi SSE 5.8 mph - N/A   Unknown